Wind_Speed
10 12 10 9 8 8 6 3 2 2 2 5 5 3 0 2 2 2 4 2 1 3 5 3 2 1 3 4 6 7 6 6 4 2 1 4 6 3 2 4 4 4 3 1 3 6 8 5 6 14 16 16 16 15 12 13 15 16 16 16 16 15 15 15 14 13 12 13 13 13 13 14 15 15 15 14 15 15 17 17 17 16 16 18 18 17 17 16 13 14 14 11 15 18 18 17 16
11 12 9 7 6 5 3 1 2 2 3 5 2 2 2 0 2 3 4 5 5 4 2 2 3 4 3 4 6 6 6 5 6 3 3 9 9 4 3 4 4 3 2 2 3 2 4 6 3 9 14 15 15 15 13 13 15 16 17 18 19 18 18 18 17 17 15 15 15 15 15 15 15 16 16 15 15 15 16 17 17 16 17 18 17 17 17 16 12 13 15 18 21 20 20 20 20
11 10 9 6 5 4 2 1 2 3 3 3 2 3 1 2 4 5 6 6 6 4 2 3 4 3 2 6 6 5 4 2 2 1 5 10 7 3 3 5 5 3 2 4 4 3 2 6 5 6 11 15 16 15 14 13 14 15 17 19 20 21 20 20 20 20 19 18 17 17 17 17 16 16 16 16 16 16 17 17 16 16 17 18 16 17 17 18 13 13 17 22 24 22 22 23 23
10 8 8 6 3 4 2 2 3 4 4 3 2 3 4 3 4 4 4 3 3 3 3 4 4 2 2 6 6 5 3 2 4 4 4 5 4 3 4 7 6 5 6 7 5 2 2 6 7 8 9 14 17 15 14 12 12 13 14 16 19 21 22 22 23 23 23 23 20 19 19 18 17 17 17 17 17 17 18 17 16 16 18 18 17 17 17 17 14 16 22 24 23 22 22 22 23
10 8 7 5 2 1 1 2 3 4 4 4 3 2 5 3 3 2 1 2 3 4 3 4 5 3 2 5 4 3 2 3 3 5 5 4 3 3 6 7 6 6 7 7 4 3 4 7 7 8 7 11 15 15 14 12 10 11 11 12 15 17 19 21 22 23 24 25 23 21 20 20 19 19 18 17 18 19 18 16 17 17 19 19 18 18 17 18 16 20 26 25 24 23 23 23 23
10 8 6 5 3 2 2 3 3 5 4 3 3 3 5 4 4 4 4 5 6 4 3 3 5 5 3 5 4 3 1 3 0 3 5 4 2 4 6 6 5 3 4 3 1 3 6 9 8 8 6 8 12 14 12 10 10 10 11 12 14 15 16 18 19 20 21 23 23 22 22 21 20 20 19 18 18 18 16 15 16 18 20 19 19 20 19 20 18 25 28 25 24 23 24 23 22
8 6 4 4 3 1 2 4 4 5 2 2 3 5 5 5 4 4 5 4 5 3 2 0 3 5 5 5 4 2 4 4 2 3 2 2 1 4 5 5 4 3 3 2 3 5 8 10 10 9 5 7 11 12 10 10 11 11 12 13 14 15 16 16 17 18 19 21 21 21 21 22 22 22 21 20 19 18 16 15 16 17 18 19 19 19 21 23 21 29 30 25 25 24 25 23 21
6 4 1 2 2 2 3 4 5 6 2 1 2 4 4 4 4 3 4 3 3 3 1 2 2 2 6 7 4 1 8 6 4 3 1 2 3 3 3 4 4 3 4 5 5 7 10 11 11 9 6 6 9 11 12 12 14 14 13 13 14 15 16 16 17 18 18 19 20 20 21 22 23 23 22 21 21 20 18 17 17 17 16 18 17 16 19 23 26 32 29 26 27 25 24 22 20
5 3 1 2 3 3 4 5 6 6 4 1 2 3 2 2 2 3 2 3 3 3 5 3 3 2 7 8 7 3 6 6 4 3 1 2 2 3 3 4 3 4 6 7 6 7 10 11 11 11 8 7 7 10 13 14 15 15 15 15 14 14 16 17 17 18 18 19 19 19 20 21 22 23 22 21 22 22 20 19 19 18 17 17 16 16 19 24 31 32 28 27 27 25 24 22 20
4 3 2 2 2 4 4 5 5 2 1 2 2 3 3 2 3 3 2 3 2 2 4 3 2 5 6 6 6 4 6 8 5 4 1 0 2 4 5 5 5 6 7 8 8 8 10 12 12 12 11 9 8 9 12 13 13 14 15 15 13 13 15 16 17 17 18 18 19 19 19 20 21 22 22 21 22 22 22 21 21 20 19 18 17 19 22 28 33 31 29 29 27 26 24 22 21
3 3 1 3 3 4 4 4 5 4 4 4 3 1 1 1 3 4 3 3 2 2 3 2 0 4 4 5 4 2 9 8 6 4 1 1 3 5 6 6 7 8 8 9 9 9 11 12 13 13 12 11 10 10 11 11 12 13 14 14 13 13 14 15 15 16 17 18 19 19 20 21 21 22 21 21 22 23 22 22 22 22 21 20 19 22 26 31 32 30 31 31 29 27 26 26 23
3 2 2 4 4 4 4 5 5 6 7 6 3 5 4 1 1 3 3 3 1 3 4 2 2 2 3 5 2 6 10 6 5 3 1 2 4 6 7 7 9 10 10 11 11 12 12 13 13 14 14 13 11 10 11 11 12 14 14 15 15 15 15 16 16 17 17 18 19 19 20 21 21 22 22 22 23 23 22 22 24 22 20 21 23 25 29 32 31 30 31 31 30 28 28 29 25
3 3 3 4 4 5 5 5 5 5 6 2 4 6 3 0 2 4 3 3 4 4 3 2 2 1 2 5 3 4 6 4 4 0 3 4 5 7 10 9 11 13 13 13 14 14 14 14 14 14 14 14 13 11 12 13 14 15 15 16 17 17 17 18 17 17 17 17 18 18 19 21 22 23 23 24 24 23 23 23 25 24 21 23 26 27 30 32 30 31 31 32 30 27 28 27 25
4 3 4 4 4 6 5 5 4 4 5 3 6 4 2 1 3 4 3 4 5 2 2 1 0 1 2 4 3 2 4 4 2 3 7 9 8 9 13 12 12 14 15 16 16 16 16 16 15 14 14 15 14 12 11 11 12 14 15 16 17 18 18 17 16 15 16 16 16 17 18 19 20 21 23 24 25 25 25 24 25 25 23 24 28 30 31 32 31 32 32 32 30 28 28 26 25
4 3 3 4 5 6 5 5 4 4 3 5 4 2 1 3 4 4 5 5 5 3 0 4 3 1 2 2 3 1 4 4 5 7 10 13 14 14 14 13 12 13 14 15 16 16 16 16 16 14 14 15 15 13 11 11 11 12 14 16 18 19 18 17 16 15 16 16 15 15 16 17 19 20 22 23 25 26 26 25 25 25 24 26 30 31 31 32 33 33 33 32 31 30 30 28 27
3 3 3 4 5 6 4 5 5 4 1 5 4 1 2 4 4 4 3 1 4 4 3 3 4 5 4 3 7 6 3 5 8 9 11 13 13 13 12 12 11 10 11 12 13 14 15 16 16 15 14 15 15 14 13 13 12 12 13 15 17 19 18 17 16 16 16 16 15 15 17 18 20 21 22 23 24 26 27 26 26 25 24 24 29 31 32 35 35 34 33 32 32 30 30 30 28
3 3 3 5 6 6 5 5 4 1 2 2 4 0 4 5 4 4 1 1 6 5 5 5 4 6 6 9 14 12 6 7 9 8 10 10 9 10 10 10 9 10 10 10 11 11 13 14 14 15 14 14 15 15 15 15 13 13 14 15 16 17 18 17 17 17 17 17 16 17 18 19 21 22 23 24 24 25 26 27 26 26 24 24 26 30 34 37 37 36 36 34 33 30 29 30 29
4 3 4 6 6 7 6 5 3 3 4 3 3 4 7 7 6 4 4 5 6 6 5 6 7 7 12 16 17 15 9 10 10 6 8 8 8 9 9 10 9 9 10 9 9 10 11 12 12 13 13 14 15 15 15 15 14 13 14 15 14 15 17 16 17 17 17 16 15 16 17 18 19 19 20 21 23 23 24 27 27 26 25 26 27 30 34 36 36 36 37 35 33 31 30 30 29
5 4 5 7 6 7 8 6 3 3 4 5 5 5 7 8 7 5 6 7 6 6 6 6 9 8 8 8 10 12 9 10 10 8 8 9 9 9 10 12 11 10 9 9 9 10 11 11 11 12 12 13 14 15 15 15 14 14 14 14 13 13 15 16 17 18 17 15 13 14 14 15 15 15 16 17 20 21 22 24 25 26 26 28 29 30 33 34 34 35 35 35 33 33 32 31 30
6 5 6 7 8 9 10 7 2 1 3 4 5 5 7 8 7 6 7 9 6 6 7 7 7 6 5 4 3 8 7 7 9 9 10 11 12 12 12 12 12 10 8 8 8 9 12 13 12 12 12 12 13 15 15 16 15 15 15 14 13 13 13 13 14 14 14 14 15 16 14 13 13 14 17 18 18 19 20 21 22 25 26 28 31 30 33 34 34 34 34 34 34 34 33 32 31
5 7 8 8 9 10 10 7 2 2 0 3 4 5 8 9 6 6 7 8 6 5 7 7 6 7 8 7 7 9 7 7 9 10 11 12 14 14 14 13 12 11 9 9 9 10 12 13 13 12 12 12 14 15 16 16 15 15 16 15 14 12 11 12 12 12 13 15 17 18 15 13 13 15 17 17 17 18 19 20 20 23 26 29 30 31 34 35 35 34 34 34 34 34 33 34 33
6 9 11 11 10 11 10 10 4 4 2 2 4 6 8 7 6 7 8 9 6 4 6 8 8 8 9 8 7 7 7 7 8 9 11 12 13 14 13 12 11 10 10 10 10 11 12 13 14 13 13 13 15 15 15 16 16 16 16 14 13 11 11 13 13 13 13 16 18 18 15 12 14 15 16 16 16 16 17 18 19 22 27 29 30 33 36 35 36 36 36 35 35 35 35 35 34
8 9 12 12 13 12 11 10 2 5 3 4 5 6 7 8 9 7 9 11 9 8 9 10 10 10 10 9 7 7 7 8 7 9 12 12 12 13 11 10 10 10 9 9 10 10 10 11 13 13 14 14 15 15 15 15 15 16 16 14 13 12 12 14 14 14 13 16 18 18 16 13 13 14 15 15 15 16 17 18 19 23 28 31 33 36 37 36 35 35 37 37 36 35 35 35 34
10 10 12 13 12 13 12 10 5 2 4 5 4 6 7 9 9 7 11 11 10 11 10 10 11 11 10 8 8 8 9 8 9 14 16 14 13 12 10 8 9 10 11 10 9 9 10 10 11 12 13 14 15 15 15 15 15 16 16 15 15 14 14 14 14 14 13 15 18 18 17 14 12 14 14 14 14 15 16 17 20 25 29 33 36 38 37 36 35 35 37 37 36 36 36 35 35
12 12 12 11 11 13 12 10 8 6 6 4 5 8 9 11 9 11 15 10 10 12 11 10 10 9 9 8 8 9 9 9 12 14 11 8 8 6 5 7 8 10 10 10 9 9 9 9 10 11 12 13 14 14 14 15 15 15 15 15 13 13 15 15 15 15 14 14 17 17 18 16 13 13 14 14 13 13 15 16 20 25 29 33 35 36 36 36 34 34 35 34 35 36 36 36 36
9 11 10 11 12 13 12 10 10 9 7 4 7 11 11 11 9 13 16 10 9 10 9 9 7 8 8 8 9 9 9 10 10 6 5 5 5 5 5 5 6 7 7 7 7 7 8 8 9 10 10 11 12 13 14 14 15 15 15 14 13 13 14 15 16 16 15 15 16 18 18 17 15 14 15 15 14 14 14 16 21 22 25 31 33 33 33 35 33 30 29 31 33 35 35 36 37
8 10 9 11 13 11 10 11 13 11 9 9 11 13 11 10 8 10 11 8 4 4 6 6 6 8 8 8 8 7 9 9 4 5 6 4 3 4 4 5 6 7 7 7 7 7 6 7 7 8 9 10 11 12 13 13 13 14 15 15 14 14 14 15 17 17 16 17 16 16 18 18 16 15 17 17 16 16 15 15 21 22 22 26 30 31 30 32 34 31 30 31 32 34 35 35 34
12 12 10 13 14 12 12 15 15 11 9 12 12 13 12 8 9 12 13 9 4 5 6 7 7 8 8 9 8 7 8 3 3 4 4 5 7 7 7 8 9 10 10 10 10 9 8 8 7 6 7 8 10 11 12 13 13 13 13 14 13 13 13 14 17 16 15 17 16 15 17 17 18 16 18 20 18 18 17 17 21 23 22 24 28 32 32 33 34 33 33 34 32 33 33 34 34
11 10 10 13 14 14 16 16 16 13 11 9 5 7 10 10 13 16 16 12 6 7 8 7 8 8 8 8 7 7 3 3 2 2 6 9 8 7 8 10 10 11 11 12 12 11 11 10 8 7 6 6 8 10 11 12 12 12 11 11 10 10 11 13 15 15 15 16 17 17 16 16 17 16 16 20 20 18 19 19 22 25 24 23 26 30 33 34 33 33 35 36 34 33 33 35 35
8 8 8 9 10 11 14 14 16 16 10 7 5 2 7 10 12 12 12 11 8 8 8 7 7 7 7 6 7 6 3 4 3 8 11 8 8 8 9 10 10 11 12 12 13 13 13 12 9 7 5 5 7 8 9 11 11 11 11 10 9 9 10 11 13 15 16 17 18 17 16 17 17 16 16 18 21 21 21 21 22 26 27 25 26 30 33 34 35 36 37 37 37 35 35 36 37
7 9 7 5 8 8 10 11 14 13 5 10 7 4 7 9 11 9 5 9 8 6 7 7 6 6 6 5 7 4 4 5 9 14 11 8 9 8 8 8 9 11 12 13 14 14 14 13 11 8 6 6 6 7 8 9 10 10 10 10 9 9 9 10 11 11 13 15 18 17 16 17 17 16 15 17 19 20 22 24 24 25 25 26 28 31 33 33 36 39 39 39 38 36 35 35 36
6 8 5 6 7 7 11 11 11 10 5 9 8 4 7 10 12 7 3 8 8 6 8 8 8 9 8 6 5 1 5 8 13 14 11 10 9 7 7 7 9 10 12 13 14 14 14 13 11 9 7 7 7 7 7 8 9 9 10 9 9 9 9 11 12 11 9 10 15 17 16 15 17 17 17 17 18 19 21 24 25 25 25 27 29 30 30 29 30 33 35 38 37 34 33 31 31
5 7 6 6 7 6 9 6 10 11 5 9 11 5 5 8 8 4 4 5 6 6 9 10 10 10 8 6 3 3 5 7 10 11 11 10 8 7 6 7 9 9 10 12 13 13 13 13 11 9 7 6 7 7 6 6 7 8 9 9 10 11 10 12 14 15 13 12 14 17 16 14 13 17 19 18 18 19 21 25 26 25 25 26 27 28 29 28 28 27 27 29 31 31 30 28 28
5 7 7 7 9 8 6 4 7 9 6 9 13 9 8 8 8 8 5 5 6 7 10 10 11 10 7 6 3 4 5 7 8 9 11 10 8 7 6 7 9 9 9 11 12 12 12 11 11 9 8 7 7 6 6 5 6 6 7 8 9 10 10 11 13 15 16 16 15 16 17 15 12 13 17 19 20 18 18 21 24 24 24 24 25 27 29 30 30 30 28 27 29 32 32 31 30
6 7 6 7 9 10 10 7 6 9 8 8 11 11 11 12 10 11 10 8 8 9 11 11 11 10 8 6 4 5 6 7 8 11 13 10 9 7 6 8 8 9 10 11 11 12 12 12 11 10 9 9 8 6 5 5 4 5 6 6 7 8 8 9 11 13 15 17 17 17 17 17 14 11 11 15 19 19 16 17 19 22 24 25 25 27 28 29 29 30 31 31 34 35 34 34 33
9 9 8 7 7 7 9 8 5 10 8 8 10 11 12 12 11 11 11 9 9 10 10 10 10 9 7 6 5 6 6 7 9 14 14 11 9 8 8 8 8 9 10 12 12 12 13 13 12 12 10 10 9 7 6 5 5 4 5 6 6 7 8 10 10 11 14 16 18 20 20 20 20 16 13 12 14 16 18 19 20 21 23 24 26 27 28 28 27 26 26 25 26 28 29 29 30
14 12 12 10 9 8 7 10 5 8 6 7 9 11 12 12 11 12 11 10 10 12 12 11 10 8 7 6 6 7 7 8 11 15 15 12 10 9 9 8 9 10 10 13 13 13 13 13 13 12 11 10 9 8 8 7 7 6 5 6 6 7 8 10 11 11 13 14 15 20 23 25 26 25 22 18 16 17 19 21 21 21 22 23 25 27 29 29 27 26 23 18 16 17 20 20 24
15 12 11 10 10 10 8 11 9 4 5 6 7 11 12 11 11 11 11 11 12 12 12 13 11 7 7 6 9 8 8 8 10 12 13 13 11 9 9 8 9 10 10 12 13 12 12 12 12 12 11 10 9 8 8 7 6 6 6 6 6 7 9 10 10 10 12 14 16 19 22 24 25 25 26 24 21 20 20 20 20 20 20 20 21 23 24 25 25 25 23 19 15 13 12 11 14
13 10 9 9 8 9 9 11 10 4 4 5 7 10 11 10 11 11 12 13 12 13 12 13 9 6 6 5 9 9 9 9 9 9 11 13 13 10 9 9 9 10 10 11 12 11 11 12 12 12 10 9 9 8 8 8 9 9 8 8 7 7 8 9 10 11 14 16 18 18 19 20 21 22 23 24 22 20 19 19 18 17 17 18 18 18 18 18 19 20 19 19 16 12 10 10 11
11 9 8 8 7 7 6 7 9 5 5 5 7 9 9 9 11 13 16 16 14 13 13 12 9 7 7 6 9 9 9 8 8 9 9 11 13 11 10 9 9 10 11 12 12 11 11 12 12 12 11 10 9 9 8 8 9 10 10 10 10 10 10 12 14 15 17 17 17 17 17 18 18 18 18 19 19 18 18 18 17 17 16 15 16 16 15 15 16 16 15 15 13 11 9 8 12
11 11 10 8 8 9 8 7 8 6 6 7 7 8 7 9 12 13 12 12 12 12 12 11 7 5 5 8 9 8 8 7 8 9 8 8 10 11 11 10 10 11 12 12 11 12 11 11 12 12 10 10 10 9 9 9 9 9 9 10 10 10 11 13 14 13 13 13 14 15 15 15 15 15 15 14 14 15 16 16 16 16 15 15 15 13 13 14 15 15 13 13 12 11 10 7 8
10 11 12 13 12 13 13 11 9 7 6 5 5 7 6 6 11 9 4 7 9 9 11 11 6 6 6 8 8 8 8 7 7 8 8 8 9 11 12 12 12 12 12 11 11 11 11 12 13 12 11 11 11 10 10 10 9 8 9 9 9 9 10 9 8 9 10 11 13 14 14 13 13 12 11 11 11 11 11 12 13 14 14 14 14 13 13 12 12 12 11 11 12 13 13 11 11
8 6 7 12 14 14 13 11 8 5 5 3 3 6 6 3 5 7 4 4 8 8 10 9 7 7 7 8 8 8 7 7 8 8 8 8 8 11 12 13 13 12 11 11 10 11 12 13 13 13 12 12 13 12 10 10 10 9 9 9 9 9 9 9 9 11 13 13 14 14 13 13 12 11 9 8 8 8 8 8 9 9 10 11 12 11 10 11 11 11 11 11 11 14 15 16 17
7 0 2 8 8 9 9 8 6 4 5 5 4 5 7 6 6 9 9 7 8 8 8 7 8 9 9 9 9 9 9 8 8 8 8 8 8 10 12 14 13 11 11 11 11 12 12 14 14 14 13 13 14 14 12 12 11 10 10 11 10 10 10 11 13 14 13 13 13 12 12 11 11 10 10 9 8 7 7 7 7 7 8 8 8 8 8 10 12 12 11 10 10 13 16 17 17
5 2 2 3 3 4 4 4 5 4 6 8 6 5 6 7 6 9 12 11 10 10 10 9 10 10 11 11 10 10 9 9 9 8 8 8 10 12 14 15 13 12 13 12 13 13 13 15 15 15 16 16 16 16 14 13 13 11 11 12 12 11 10 12 14 12 11 12 12 12 12 11 10 10 10 9 9 8 8 8 8 8 8 8 7 7 8 9 10 11 10 10 11 12 15 16 14
3 3 0 2 1 2 2 3 4 4 8 10 7 6 5 8 5 7 9 10 11 11 9 10 10 10 10 11 11 11 10 9 9 9 8 9 13 15 16 16 15 14 14 15 15 15 16 17 17 18 18 18 18 18 17 16 15 14 14 14 14 13 11 12 13 11 10 10 10 11 11 11 11 12 12 10 9 9 9 8 9 9 9 9 9 9 9 9 10 10 9 9 10 12 13 15 15
3 3 2 1 2 2 1 4 2 3 11 10 7 10 8 7 4 6 7 9 11 10 8 9 10 9 9 11 11 12 10 8 8 8 9 11 16 17 17 17 17 16 16 17 18 17 18 19 18 19 18 18 18 18 17 17 16 16 16 15 16 17 15 14 15 14 12 12 10 9 9 9 9 11 13 12 11 11 9 8 9 9 9 10 10 10 10 11 11 11 11 10 10 11 12 13 15
3 4 2 1 3 3 2 3 4 6 11 5 9 14 13 9 5 4 6 10 11 9 9 10 10 9 8 9 11 11 9 8 8 8 8 10 12 15 16 17 17 17 18 20 19 18 19 19 18 19 19 18 17 17 17 17 16 15 16 16 16 18 17 16 17 18 18 18 16 14 12 11 11 12 13 13 13 15 13 11 11 10 10 10 10 10 10 10 11 11 11 11 11 11 12 13 14
4 4 3 2 3 2 3 4 5 8 9 4 10 14 13 12 8 4 4 9 11 8 8 10 10 9 8 11 11 9 9 9 8 8 8 8 7 10 13 15 16 18 19 19 19 18 18 18 18 19 20 18 17 16 16 16 16 15 15 15 15 16 18 17 17 18 18 18 18 17 16 15 15 15 15 14 14 14 13 13 12 12 11 11 11 11 11 11 11 12 12 12 11 11 12 12 13
6 5 5 5 4 3 6 6 4 8 8 8 12 11 8 8 7 11 10 9 9 6 7 7 7 10 11 12 10 10 10 9 8 8 8 7 6 9 13 15 16 17 18 18 18 18 18 18 18 18 18 17 16 16 15 16 16 15 14 14 14 14 15 16 16 16 16 15 15 15 15 15 14 14 14 13 12 10 9 10 9 9 10 10 12 12 11 10 11 11 11 11 11 11 11 12 13
7 6 5 6 5 4 5 4 4 6 4 4 5 6 5 3 4 11 12 11 9 6 7 8 11 13 12 11 11 10 10 8 8 9 8 7 8 12 14 15 16 16 16 16 16 16 17 17 17 16 16 16 16 16 15 15 15 15 14 13 13 13 13 13 13 14 13 13 13 12 13 13 13 13 12 12 11 10 9 8 8 8 8 8 10 10 10 10 10 11 10 9 10 10 10 10 12
5 4 3 7 6 4 5 6 8 7 5 2 2 2 3 1 1 4 6 10 11 7 8 9 12 14 11 10 10 9 8 8 8 8 8 8 11 14 14 14 15 15 15 15 15 15 15 15 15 15 15 14 15 15 15 15 14 15 15 14 14 13 12 12 12 13 12 11 11 11 12 12 12 12 12 12 11 11 11 10 9 9 8 8 9 9 9 8 8 9 10 10 10 10 10 10 11
3 4 7 8 5 4 7 9 9 8 9 7 5 4 4 2 4 4 6 10 12 8 8 9 11 13 12 9 8 8 8 8 8 8 8 8 10 13 14 14 14 12 13 13 13 13 13 13 13 13 13 14 14 15 15 14 14 15 16 15 15 14 14 13 12 12 12 11 11 11 11 12 12 12 13 13 12 11 11 11 9 9 9 9 9 9 10 9 8 8 9 9 10 11 11 11 11
6 5 7 5 2 4 5 6 5 7 10 7 6 9 7 4 5 5 8 10 10 9 9 9 10 12 11 9 9 9 9 9 9 9 8 8 10 12 13 13 12 10 11 12 12 12 12 12 12 12 13 14 13 13 14 15 15 15 16 15 15 14 14 13 12 12 12 12 12 12 12 12 13 13 13 12 12 12 11 11 11 10 9 9 8 8 9 9 9 9 9 9 9 10 11 11 11
4 2 2 2 3 4 6 6 5 6 9 7 6 8 6 5 4 5 9 10 9 9 9 10 11 11 10 9 10 10 9 8 8 8 7 7 9 11 11 10 10 10 10 11 11 11 12 12 12 12 12 12 12 12 13 14 15 15 15 14 14 14 14 13 12 12 12 12 13 13 13 13 12 12 12 12 12 12 12 12 12 11 10 8 8 8 8 8 7 8 9 9 9 9 9 10 10
1 2 3 3 3 3 5 6 4 5 8 7 6 6 5 5 6 9 11 10 10 9 9 11 10 9 8 8 9 8 8 7 6 7 6 6 8 9 10 9 9 9 9 10 10 11 11 11 11 11 11 11 12 12 12 13 13 13 13 13 13 13 13 13 12 12 12 12 12 12 12 12 11 11 11 11 11 11 11 11 11 11 10 9 8 8 8 7 6 6 8 8 8 7 6 7 8
3 4 6 6 4 1 1 4 5 5 6 6 6 6 3 2 3 10 12 9 10 11 12 10 9 9 8 7 8 7 7 7 6 6 6 5 7 9 9 8 8 9 9 10 10 10 11 11 11 11 11 11 11 11 11 12 12 12 12 12 12 12 12 12 12 12 12 12 12 12 11 11 11 11 11 11 11 11 11 11 10 10 10 10 9 8 8 7 6 6 7 8 8 8 7 6 7
10 8 10 10 8 4 3 6 5 3 5 5 4 5 3 1 1 5 8 7 8 13 14 10 8 10 8 7 7 7 7 6 6 6 5 5 7 8 9 8 9 9 10 10 10 10 10 10 10 10 10 10 10 11 11 11 11 12 12 12 11 11 11 11 11 12 12 12 12 11 11 11 10 11 11 10 10 10 10 10 10 10 10 10 10 10 9 8 7 7 7 7 8 8 8 8 8
Wind_Direction
328 326 318 315 300 290 273 231 268 226 219 256 252 261 81 48 33 4 347 31 62 48 50 19 6 215 263 300 299 311 291 280 291 284 336 151 153 141 97 53 46 51 72 73 349 329 342 351 219 213 212 212 213 213 223 232 233 234 236 238 239 242 246 250 250 247 245 243 245 246 247 244 244 244 244 243 242 244 248 252 254 253 252 254 252 249 249 250 251 235 220 192 177 164 160 159 164
325 317 300 290 278 284 288 202 270 252 214 254 279 62 167 140 49 50 27 30 40 51 24 329 293 266 247 264 269 281 264 235 234 248 93 147 143 92 47 43 43 56 71 24 30 14 326 330 284 226 218 216 216 216 223 228 233 236 237 238 239 240 243 248 251 250 249 248 247 246 247 246 246 247 247 249 247 247 250 252 254 254 255 255 253 249 247 248 245 235 215 180 173 171 168 168 176
324 317 299 284 254 244 281 250 255 283 281 284 347 57 71 358 33 52 43 27 19 21 335 308 284 272 235 250 260 278 269 208 244 256 125 149 135 71 24 24 29 29 10 9 35 105 238 283 298 263 232 222 220 220 223 227 232 234 238 239 239 241 242 245 250 250 250 251 251 249 248 247 247 248 248 249 248 248 249 251 252 252 254 255 254 248 246 244 237 228 203 177 176 175 172 172 178
324 314 297 293 250 216 246 244 241 282 291 297 309 70 65 25 33 57 63 55 354 315 304 319 307 296 236 266 298 315 285 81 28 27 116 138 97 43 16 9 10 9 356 13 27 50 247 274 289 277 250 228 223 220 223 228 229 229 233 237 238 240 243 246 248 249 249 250 253 254 251 249 249 249 248 248 248 247 245 248 248 248 252 254 252 249 247 241 225 211 196 180 180 177 174 174 174
314 295 274 281 282 238 269 263 260 263 263 276 280 41 59 38 28 42 45 36 322 300 328 340 312 310 252 266 293 304 296 95 36 33 82 120 97 25 5 1 8 8 353 12 26 357 291 289 301 288 262 231 223 219 223 230 231 229 227 233 238 239 242 245 246 247 247 247 250 254 253 252 250 249 249 248 249 249 246 249 250 250 253 256 254 247 246 238 215 199 192 181 182 180 178 177 175
301 282 243 246 282 314 276 263 271 257 260 280 288 346 23 24 25 5 338 333 316 315 9 343 317 328 297 271 258 251 2 81 45 44 88 139 127 350 350 355 8 1 343 1 316 299 284 290 311 309 277 231 221 218 223 232 241 245 240 240 243 242 241 242 244 245 242 241 245 251 253 253 251 250 251 249 249 252 250 254 258 259 258 259 257 248 237 228 210 195 190 183 185 183 181 181 180
302 290 228 227 264 269 254 261 270 272 300 31 326 343 4 11 26 351 319 322 316 321 73 305 325 327 276 275 274 262 59 84 133 93 121 175 298 329 340 338 346 337 303 283 274 279 285 295 308 316 297 241 223 218 221 228 237 244 246 248 250 248 245 247 249 248 244 242 245 250 250 250 250 249 250 250 251 253 252 255 260 262 261 259 258 251 231 219 204 192 189 187 187 184 183 183 181
290 286 266 265 264 201 238 256 259 267 265 102 341 352 354 352 9 327 307 319 312 319 311 253 27 349 281 299 295 49 74 89 115 116 225 274 301 316 337 323 323 315 285 273 273 277 290 299 303 312 309 266 235 223 219 221 228 231 238 246 252 251 249 253 255 255 252 252 252 253 251 249 248 248 249 251 252 253 252 253 255 258 257 254 251 241 224 211 197 190 191 191 189 188 187 183 181
254 238 292 279 270 252 249 261 260 255 249 272 3 354 329 301 287 253 256 280 295 318 298 307 24 334 293 312 299 303 94 110 104 116 243 296 297 317 327 313 284 265 270 271 266 270 287 297 301 307 306 285 254 231 221 221 226 226 231 241 248 250 250 254 257 258 258 257 257 256 255 253 253 252 250 251 253 253 253 252 253 255 252 247 236 221 214 201 190 189 193 192 191 192 190 186 186
243 214 281 286 271 268 256 261 270 271 312 25 343 284 288 278 277 264 239 255 247 286 290 350 345 271 288 301 294 290 143 140 113 114 129 277 288 311 311 306 286 266 265 269 268 265 276 289 296 299 301 290 264 243 231 228 227 224 229 235 241 246 247 251 254 256 258 259 257 257 256 254 256 254 251 252 254 254 254 253 251 251 247 238 221 212 205 190 187 191 193 191 191 190 188 187 186
266 202 234 283 260 259 267 285 298 325 342 346 305 235 99 5 320 297 281 260 197 249 276 76 268 285 311 290 295 108 134 135 120 124 118 316 288 296 300 297 291 285 273 266 261 257 265 280 289 292 295 293 274 252 241 236 233 231 230 230 235 244 246 248 252 252 255 258 258 258 256 254 254 253 253 253 254 256 256 254 253 249 243 235 218 207 197 188 190 194 193 193 192 187 183 183 183
275 232 209 252 264 271 283 298 301 314 316 311 327 82 83 65 269 268 275 294 322 285 271 137 144 14 333 286 288 121 117 109 123 137 299 316 299 296 298 289 288 293 287 277 266 258 256 262 274 283 288 290 286 268 248 239 236 236 232 231 234 242 247 249 251 251 252 256 258 258 257 256 254 253 252 252 254 257 256 252 253 250 241 234 219 205 197 194 196 198 197 195 193 188 186 188 189
257 276 266 258 273 279 283 291 294 307 300 309 83 85 55 11 253 290 318 316 290 273 270 79 71 48 291 280 278 130 113 118 141 133 320 317 298 293 302 296 285 289 288 283 276 268 259 255 260 270 279 283 286 283 265 246 239 240 237 236 237 242 246 249 250 251 252 254 258 259 260 260 258 257 253 253 255 256 255 250 250 251 245 234 219 208 203 200 200 202 200 196 192 189 190 193 195
250 264 277 274 279 280 286 284 283 284 281 70 97 111 74 324 270 290 292 271 271 253 162 166 22 354 278 256 274 106 141 178 188 296 311 319 308 297 303 300 287 285 286 283 278 273 266 263 258 254 264 274 277 283 282 265 252 247 243 243 244 246 247 248 249 252 254 254 257 259 260 262 262 262 259 256 254 255 255 252 251 251 249 237 221 212 208 205 205 204 200 198 195 191 192 191 192
257 278 272 271 279 274 264 264 268 268 290 68 89 106 86 264 263 271 270 263 287 8 148 226 188 201 273 252 307 35 165 221 283 298 312 317 314 312 307 301 290 282 284 284 280 275 270 268 265 255 250 260 269 274 278 278 270 256 246 245 247 250 251 250 250 253 256 257 258 260 262 265 266 266 264 260 256 254 253 253 253 250 249 239 225 218 213 209 208 205 201 200 196 192 193 190 192
246 287 276 262 264 266 261 267 263 248 313 94 129 189 270 264 276 281 296 272 286 310 280 259 177 200 254 265 269 275 242 268 287 297 311 315 313 311 302 293 287 281 280 284 283 277 273 268 266 264 254 251 257 261 262 265 269 263 253 250 248 248 249 249 247 252 256 258 260 264 269 271 271 269 266 263 259 255 252 250 252 250 248 240 230 227 220 215 212 205 200 198 194 193 193 190 195
225 244 251 254 251 257 257 259 270 298 9 96 141 9 306 298 293 289 357 214 251 262 254 263 239 211 229 235 240 253 264 270 280 291 300 305 301 295 288 278 267 262 260 269 283 279 272 269 265 265 259 252 252 255 257 259 262 262 259 259 255 247 244 245 246 251 253 255 262 270 276 279 278 275 269 266 263 258 254 250 249 249 246 241 235 232 226 218 212 202 197 195 193 194 193 192 196
221 221 232 246 244 250 258 269 331 358 345 350 2 350 317 305 302 318 327 272 261 269 264 273 277 246 234 232 229 238 249 255 259 264 276 282 283 283 281 276 265 258 253 255 275 276 267 267 267 263 257 252 251 254 256 258 258 256 258 261 262 253 242 240 245 250 253 256 267 275 280 283 283 282 275 270 266 262 256 250 247 245 243 242 239 233 226 215 204 198 197 196 195 194 191 192 197
218 227 231 241 245 255 274 299 1 347 326 334 326 322 305 299 307 310 294 284 290 291 287 281 278 267 246 224 214 231 247 252 240 229 254 266 269 269 267 268 265 266 263 252 260 270 265 264 265 263 258 250 247 251 252 253 254 253 255 258 260 260 248 239 245 253 256 257 260 266 273 277 279 281 275 266 263 262 258 252 246 244 241 240 235 226 216 207 200 200 199 196 196 194 191 194 199
218 224 237 242 251 265 275 295 13 18 322 311 301 318 301 291 294 288 284 288 285 275 275 270 270 288 329 1 293 276 281 266 248 237 245 253 258 256 254 253 252 255 257 251 251 255 259 262 262 261 259 248 240 243 247 247 247 247 249 252 252 257 255 245 251 258 258 257 256 260 265 272 271 268 267 260 257 259 258 254 249 246 242 238 232 219 207 203 203 203 200 197 195 193 194 199 201
218 216 238 248 259 271 276 289 331 107 70 294 295 306 289 284 287 280 284 283 269 254 262 275 295 313 320 322 307 295 284 266 258 249 244 245 250 250 250 250 250 251 248 248 245 240 247 256 257 255 255 246 238 239 243 244 241 242 243 247 248 251 252 244 248 254 257 259 260 266 264 263 266 261 262 260 257 259 257 257 255 247 239 234 228 213 204 203 202 201 200 198 194 193 197 200 201
238 236 241 251 266 275 282 293 325 92 124 250 263 271 280 290 287 274 271 267 257 259 277 290 302 305 299 296 290 278 264 256 250 247 246 246 247 249 251 253 257 259 253 246 243 242 241 246 249 246 245 241 240 241 243 244 241 241 239 241 242 243 244 239 242 242 249 257 261 272 266 254 261 259 259 262 260 259 259 261 259 244 232 226 219 208 203 202 201 200 199 197 196 196 199 202 202
238 251 249 252 260 265 274 282 294 106 176 231 248 266 284 290 280 265 255 256 260 267 273 280 283 282 283 285 277 265 258 254 247 248 249 249 253 256 258 261 265 272 275 265 255 252 246 245 246 241 239 237 240 242 240 240 241 241 239 237 236 235 238 240 244 243 244 256 262 272 269 254 257 259 257 263 264 260 259 260 253 236 224 219 211 205 202 200 199 198 198 199 198 197 200 203 204
235 247 250 252 261 270 274 271 255 197 232 236 255 273 273 271 273 265 250 247 257 264 262 265 271 271 269 265 260 258 257 254 250 252 250 249 252 251 255 261 268 278 282 280 272 265 259 255 250 244 242 239 238 240 237 235 236 241 242 242 241 233 233 237 243 247 246 256 262 270 273 257 248 257 254 256 263 257 254 251 239 225 216 211 206 201 200 198 197 197 198 199 199 198 200 202 203
241 248 253 255 267 275 276 272 267 266 262 239 245 259 253 252 261 269 263 254 251 258 262 262 266 270 264 255 254 255 255 254 249 249 254 265 274 272 264 257 258 264 267 273 276 271 269 265 257 250 247 244 242 241 239 234 233 240 243 245 244 235 236 237 239 245 244 253 261 265 274 263 240 247 251 250 251 242 241 235 221 212 207 203 199 197 198 196 196 197 197 198 198 198 198 201 204
245 252 260 262 261 265 268 269 265 263 259 221 229 246 245 244 252 264 263 257 247 247 252 253 257 264 260 253 251 249 250 256 257 262 303 322 321 315 298 279 270 275 280 288 289 283 278 272 262 255 250 249 247 243 240 239 238 239 241 243 242 238 240 243 241 241 239 246 257 259 267 269 251 241 242 244 242 230 228 223 211 206 204 201 196 195 197 197 196 197 196 197 200 199 200 203 205
267 262 270 275 270 271 274 273 265 263 261 242 239 248 249 241 240 259 260 253 232 206 230 235 241 251 251 255 251 249 252 258 296 356 338 335 13 351 355 1 344 341 337 331 329 319 306 294 279 266 258 252 249 247 244 243 241 239 243 248 249 245 240 245 248 244 242 243 252 259 263 270 265 248 237 237 239 230 225 223 214 210 209 207 202 200 201 199 200 203 203 204 206 205 203 204 205
267 271 284 282 276 273 266 264 260 258 258 248 246 256 262 253 238 249 255 250 195 166 218 229 237 251 254 258 254 252 251 250 19 3 350 34 46 27 31 27 5 360 354 351 349 340 331 318 305 287 271 262 254 249 248 247 245 244 252 254 252 253 246 249 252 248 248 246 250 263 263 267 271 260 241 234 236 230 223 222 216 214 215 214 213 210 208 208 206 207 210 210 210 209 208 206 207
268 273 282 277 274 268 257 255 251 244 243 236 240 265 261 250 233 234 242 245 219 199 221 230 235 248 249 251 252 248 223 92 39 37 60 61 60 46 39 31 15 5 357 354 352 345 343 334 320 302 278 275 269 257 251 250 250 250 255 254 255 267 263 259 260 253 253 252 254 265 264 263 268 268 254 240 237 232 222 217 214 214 216 218 221 218 215 215 212 210 212 212 210 209 210 210 208
279 271 269 276 276 265 252 250 243 239 230 185 157 252 252 248 238 235 231 219 214 219 226 237 238 248 255 254 259 244 136 113 125 93 79 72 74 59 41 28 16 8 1 357 356 352 351 347 336 318 292 285 285 273 262 254 256 254 252 254 262 274 268 265 272 263 259 259 261 270 267 256 258 267 269 256 247 241 233 226 219 215 214 217 220 220 221 220 216 215 213 211 209 208 208 209 207
273 264 256 258 266 266 259 254 235 226 190 144 159 243 255 264 267 274 247 186 190 223 240 255 260 269 274 264 257 236 128 118 105 98 96 90 79 62 47 30 16 12 7 3 1 359 358 356 349 338 321 309 300 289 277 264 261 261 259 260 262 267 263 264 277 273 264 262 262 273 278 260 251 255 262 262 257 253 249 243 234 227 226 227 224 220 221 221 219 217 215 212 209 207 206 205 203
253 258 254 234 247 266 265 252 209 199 175 158 176 235 248 254 263 264 136 149 172 211 245 260 267 271 269 265 260 187 92 98 102 107 111 98 83 67 57 38 25 19 13 9 4 3 4 2 358 351 338 323 313 300 287 273 265 264 268 268 261 265 266 261 267 270 266 263 260 272 290 278 256 250 250 254 260 263 261 253 246 245 245 243 238 230 226 224 221 217 213 211 206 202 202 201 199
232 240 249 245 248 269 268 233 187 194 175 175 194 219 244 243 260 256 146 170 194 211 244 254 261 267 263 267 258 120 109 117 116 117 115 106 92 75 64 48 37 30 21 14 9 8 8 7 5 1 350 333 324 316 302 287 276 268 267 269 271 276 275 264 263 267 268 270 269 275 290 292 265 252 249 250 257 263 262 255 250 251 250 248 247 243 240 238 235 229 219 213 208 204 204 204 203
227 232 243 250 249 261 270 221 194 202 165 178 207 223 250 253 274 286 273 268 269 259 265 269 271 274 270 264 226 151 153 141 126 118 116 110 97 83 71 60 48 41 32 20 18 17 13 13 11 6 1 352 345 336 321 301 286 277 271 269 279 284 280 274 273 273 272 273 273 274 281 287 277 261 254 250 252 257 259 252 248 251 250 249 249 248 247 244 240 235 228 222 219 215 213 212 211
227 233 236 239 237 240 249 244 200 194 192 199 213 223 241 249 259 268 266 261 260 256 260 266 266 266 265 254 205 160 156 135 122 119 120 115 100 89 77 66 53 46 37 26 25 23 20 20 17 15 12 6 0 352 339 319 299 289 279 272 279 288 284 283 282 277 276 276 275 276 279 284 284 276 262 251 247 250 255 251 248 252 253 250 249 247 245 241 235 231 229 227 222 218 218 217 213
257 262 262 263 261 249 254 265 193 178 211 224 221 234 242 246 252 256 263 261 257 258 254 257 258 256 257 243 186 154 144 122 119 120 119 117 104 91 82 68 57 51 39 31 30 25 22 21 21 21 15 10 7 4 359 347 330 308 293 289 288 288 282 282 287 286 281 274 270 272 279 288 290 286 275 262 251 251 254 254 251 252 253 251 248 246 243 238 233 232 234 235 228 222 220 216 212
269 276 276 278 282 278 275 286 261 178 211 235 225 241 244 248 257 259 267 269 263 262 257 256 254 250 252 225 165 141 130 117 120 121 121 117 103 93 84 70 61 54 40 32 31 27 24 21 21 20 14 13 11 7 5 1 356 345 329 323 316 306 299 294 296 293 284 276 273 273 280 288 291 288 285 281 273 266 260 258 257 252 247 245 246 248 246 240 234 234 239 245 246 236 229 223 213
257 262 269 272 272 276 271 278 282 181 191 248 245 254 252 248 256 259 265 264 258 256 253 256 252 251 254 200 147 130 122 124 130 127 124 118 104 96 87 70 61 57 43 32 30 29 26 23 19 16 14 13 13 9 2 355 356 355 348 340 332 320 309 304 302 297 292 291 291 286 283 285 285 284 286 287 283 276 270 266 265 259 250 244 244 244 243 239 236 237 240 245 245 236 243 246 214
255 256 260 262 262 276 270 264 267 213 189 255 255 261 263 258 258 259 257 255 252 249 247 252 254 262 260 175 137 136 134 140 146 134 126 119 109 101 88 71 65 62 47 34 32 30 26 23 17 15 16 12 11 9 1 349 340 334 331 328 325 318 308 305 305 303 304 303 297 292 288 285 285 283 283 286 286 282 277 273 271 268 262 255 251 248 244 244 244 244 244 244 241 229 241 255 232
257 256 254 256 251 257 261 260 260 228 200 239 260 267 265 264 264 257 249 246 249 248 245 249 250 248 235 162 138 145 142 143 141 129 123 117 107 97 83 69 66 63 46 35 32 28 24 20 14 14 15 11 9 6 359 350 339 336 337 332 325 319 313 309 305 304 305 306 302 299 296 294 293 292 290 288 286 284 281 278 275 273 272 267 261 256 253 253 254 254 251 244 244 236 238 253 238
251 253 252 258 257 254 257 267 275 261 225 223 255 275 263 244 246 248 245 238 241 245 244 248 237 207 174 133 134 139 133 135 129 121 117 108 101 94 83 70 64 59 42 33 32 26 22 17 15 17 16 13 11 6 360 348 340 348 348 340 334 326 318 312 311 316 315 314 315 313 310 307 304 303 302 299 295 291 289 287 285 281 278 275 269 261 254 251 251 252 253 244 238 233 229 241 241
249 247 251 260 260 259 263 267 276 277 258 228 234 266 272 227 226 239 239 214 221 228 233 235 201 155 132 122 129 123 117 118 111 111 110 104 106 100 84 68 61 54 40 33 32 27 25 21 20 22 20 18 12 5 5 356 348 353 349 341 339 335 333 334 336 338 330 325 323 320 316 311 306 304 301 300 299 295 293 291 289 286 282 278 272 267 260 255 254 253 251 243 237 240 238 232 238
251 239 253 265 257 250 257 268 270 265 273 271 214 250 281 283 259 284 298 211 201 212 221 208 170 164 159 144 140 130 125 116 106 111 113 108 106 97 82 69 62 52 41 36 34 31 29 27 26 26 26 24 16 10 12 5 355 352 350 348 347 348 351 352 344 332 327 326 323 319 318 313 307 302 297 291 286 284 283 278 275 273 270 267 262 260 258 252 251 250 245 238 236 243 238 226 230
253 292 295 278 267 251 253 264 263 263 290 282 217 229 271 276 265 267 262 219 195 209 216 188 173 181 170 157 152 148 143 133 124 118 112 104 93 89 83 75 66 54 45 40 37 34 33 31 30 31 30 26 19 17 19 14 7 2 357 357 358 359 357 345 336 332 330 331 332 333 332 328 322 315 307 300 293 292 292 286 281 275 269 265 256 253 254 248 248 249 247 241 232 233 232 228 233
235 83 344 315 340 299 284 277 270 288 296 268 221 200 257 265 236 231 234 218 201 209 209 192 186 181 167 163 155 139 126 118 119 112 105 102 92 88 85 79 70 59 49 43 42 38 36 36 33 35 35 29 23 22 21 19 19 14 5 3 360 354 349 344 343 342 345 348 349 354 354 349 345 340 332 322 313 307 304 302 300 299 297 293 284 275 267 262 262 258 253 249 239 239 239 236 238
204 118 92 52 33 304 322 279 275 294 272 256 222 184 235 269 241 210 220 209 203 210 205 191 186 178 166 161 143 121 109 101 102 103 101 97 91 87 82 76 65 54 47 42 43 39 37 37 35 35 34 31 29 28 28 28 29 25 17 11 6 3 360 357 354 350 353 356 352 358 6 5 360 357 355 348 335 322 311 304 301 300 305 303 299 297 287 280 280 272 262 256 247 246 247 240 239
126 138 224 297 250 233 250 249 224 266 259 244 201 194 224 265 229 189 203 196 196 202 192 181 180 182 174 155 132 116 113 111 105 103 101 92 85 78 71 66 56 47 43 40 40 38 35 35 34 33 32 31 31 31 33 33 33 34 29 24 20 18 15 10 9 10 10 7 1 5 14 12 10 11 10 6 357 349 337 322 315 306 304 305 302 300 298 292 289 286 278 273 266 258 255 251 246
145 145 185 286 253 205 231 235 173 236 254 214 182 200 214 238 231 188 187 179 190 197 181 175 175 180 168 129 115 114 113 112 106 98 92 85 75 68 63 59 52 45 42 39 38 38 36 34 35 34 31 30 30 31 33 31 30 32 31 29 30 29 28 27 29 29 26 24 23 26 29 29 33 36 33 26 12 3 357 346 339 331 321 316 311 306 305 304 300 296 290 283 279 274 268 266 262
176 147 148 215 244 211 222 218 188 232 250 221 204 204 210 233 241 239 180 168 197 204 165 168 173 165 133 104 102 105 100 98 96 88 79 74 67 64 61 57 52 46 42 40 38 38 37 36 36 35 32 29 29 31 32 31 29 29 29 29 30 33 36 37 38 36 32 32 32 31 35 38 40 41 41 37 27 18 13 3 353 349 343 330 320 314 310 305 303 303 302 298 291 285 280 276 271
176 170 169 191 211 224 231 224 218 243 251 241 223 206 215 243 230 220 206 179 198 192 139 144 134 117 106 102 100 94 92 91 88 85 78 73 69 68 64 58 53 48 45 42 39 39 40 38 37 36 32 28 29 31 32 33 30 28 30 30 29 32 36 36 35 33 30 30 30 29 31 32 32 31 29 26 23 20 21 16 5 359 355 342 327 322 316 308 305 304 304 307 305 300 291 284 278
190 182 180 207 206 219 238 225 233 256 271 260 225 194 204 228 206 211 198 172 181 168 125 105 92 98 102 100 96 91 93 91 86 87 82 76 71 67 64 60 55 51 48 45 42 42 42 40 38 37 33 30 30 32 34 35 31 29 31 32 31 32 33 34 33 31 27 24 24 24 23 22 21 20 15 10 7 2 1 2 0 359 356 348 336 328 324 317 313 308 298 294 302 305 297 289 285
202 154 183 231 213 218 262 264 263 281 308 280 231 236 235 230 258 219 174 163 170 156 127 114 100 103 104 97 98 99 98 95 91 89 83 76 71 68 66 61 57 54 52 50 47 45 44 43 40 38 36 36 35 35 38 40 36 34 36 36 36 35 33 33 32 30 29 25 22 21 20 18 15 10 7 5 1 359 358 354 353 355 350 345 338 330 325 317 314 314 305 294 291 296 294 286 285
156 154 211 224 203 213 247 261 262 268 275 255 207 244 264 258 259 220 166 166 165 149 131 126 111 104 101 98 103 99 92 89 86 86 83 78 75 71 68 64 61 59 56 55 53 50 48 46 44 41 38 38 38 38 40 41 40 40 40 40 39 38 36 36 34 32 29 26 24 24 21 17 13 8 6 6 3 2 3 1 358 357 354 350 344 339 335 324 313 309 308 302 294 294 292 283 280
158 190 213 200 185 219 226 256 257 235 255 251 199 227 228 208 245 196 167 175 163 148 135 119 100 95 95 92 93 92 93 92 87 86 82 76 74 71 72 72 70 68 65 62 59 55 53 50 48 45 41 40 40 40 40 40 41 42 41 41 41 41 41 40 40 37 33 30 29 29 26 22 18 15 11 9 6 3 2 2 0 358 358 359 357 355 351 345 336 324 315 310 304 299 292 286 284
174 209 228 176 198 213 201 229 248 226 247 254 214 231 229 208 222 168 174 181 154 139 127 110 98 98 100 98 99 98 97 95 89 86 80 75 76 74 76 79 76 73 69 66 64 60 58 55 53 50 46 44 43 42 43 42 44 46 44 43 44 44 43 43 43 41 38 37 36 34 33 30 26 22 19 17 13 10 8 6 4 1 358 356 355 354 349 349 353 350 340 329 323 314 295 286 287
31 352 292 254 241 223 196 213 236 228 245 259 239 236 239 223 192 169 181 176 148 134 112 104 101 97 98 100 103 100 95 94 91 91 88 83 86 87 88 85 80 76 70 68 66 62 61 57 55 54 49 48 49 48 48 46 47 48 47 46 45 44 44 43 43 42 41 42 40 37 35 32 28 24 23 21 18 16 15 14 11 8 5 1 357 352 345 339 340 348 350 341 337 336 314 296 291
192 216 225 227 225 231 225 230 234 228 239 254 250 243 249 269 177 165 171 164 144 128 111 107 104 95 89 87 93 95 92 93 93 95 96 98 99 98 95 89 84 79 74 71 68 63 62 57 54 52 48 48 49 47 48 46 45 44 42 42 40 40 41 39 38 38 39 39 37 35 32 28 25 22 20 18 16 16 14 14 13 10 10 11 7 3 357 349 338 334 338 334 330 332 330 323 311
187 198 209 211 208 203 229 234 217 212 238 239 250 252 232 274 36 123 136 131 119 116 113 110 106 103 96 83 87 95 96 95 95 97 101 108 108 102 96 91 85 79 74 71 66 62 60 56 54 52 49 47 44 41 42 40 38 37 36 35 32 31 31 29 28 29 29 30 28 27 24 20 18 17 15 11 9 9 9 7 7 6 7 8 6 6 5 3 359 349 342 336 326 323 322 319 318
Height
804 804 803 803 802 802 801 800 814 812 811 819 800 790 790 782 781 783 783 781 784 786 784 785 784 786 790 791 791 789 789 790 792 797 801 790 784 786 785 785 785 784 785 785 785 784 784 785 786 787 788 789 790 791 792 793 794 795 796 797 798 799 799 800 801 801 802 802 803 803 803 804 804 805 805 806 806 807 807 808 808 809 809 810 810 812 812 813 814 816 817 819 821 821 820 821 823
804 804 803 804 801 804 802 799 818 814 811 815 792 788 790 779 782 787 786 785 787 786 783 783 783 783 784 785 785 788 786 781 779 782 785 783 783 785 783 784 784 784 784 784 784 784 784 784 786 787 787 788 789 790 791 792 793 794 795 795 796 797 798 799 799 800 801 801 801 802 802 802 803 804 804 805 805 806 806 806 807 808 808 809 809 810 811 812 814 816 817 816 817 818 817 818 820
805 804 802 803 800 802 802 803 818 815 811 810 793 786 785 784 786 786 786 786 785 782 783 783 783 782 784 787 785 788 786 776 775 775 779 783 782 783 784 783 783 784 783 783 784 784 785 784 785 786 786 787 788 789 790 791 792 793 793 794 795 796 797 798 798 799 800 800 800 801 801 801 802 802 803 803 804 804 804 805 805 806 806 807 808 809 810 811 812 815 815 815 815 815 815 816 818
804 803 803 803 802 803 805 810 814 813 813 806 797 787 783 788 787 786 785 784 782 781 783 783 785 780 783 791 784 784 783 777 777 775 779 783 782 783 782 782 783 782 782 783 783 783 784 783 784 785 785 786 787 788 789 790 791 792 792 793 794 795 796 796 797 798 798 799 799 800 800 801 801 801 802 802 802 802 802 803 803 804 805 806 806 807 809 810 811 813 814 814 815 817 817 817 817
804 804 803 802 806 806 807 811 806 809 809 798 794 786 781 785 784 785 783 782 781 781 783 785 789 780 780 785 782 785 782 778 778 775 779 781 781 782 782 782 782 782 782 782 782 783 782 783 783 783 784 784 785 787 788 789 790 791 791 792 793 794 795 795 796 796 797 798 798 798 799 799 800 800 800 800 801 800 801 801 802 802 803 804 805 806 807 809 810 812 813 813 815 816 817 817 817
804 803 802 802 803 802 809 814 808 805 795 785 789 783 779 782 783 786 784 783 780 780 782 785 788 785 785 780 776 780 776 778 779 776 779 780 781 782 782 782 782 782 782 782 782 782 781 782 782 782 783 783 784 786 787 788 789 790 791 791 792 793 793 793 794 794 795 796 796 797 797 798 798 799 799 799 799 799 800 800 801 801 802 802 803 804 805 806 809 810 812 812 814 815 815 816 817
804 804 802 804 803 802 814 816 808 801 785 778 784 782 781 782 783 787 787 787 784 781 782 785 785 789 790 780 777 775 771 776 777 778 779 780 781 781 782 781 781 782 781 782 782 781 781 781 781 781 781 782 783 784 786 787 788 789 790 790 791 791 792 792 793 793 793 794 794 795 795 796 796 797 797 798 798 798 799 799 799 799 800 801 801 802 803 804 806 809 810 811 813 813 814 815 816
805 805 802 807 809 807 814 812 803 795 783 776 778 780 781 782 784 788 790 790 789 786 785 784 783 793 790 779 783 777 772 776 775 779 779 779 781 780 781 781 781 781 781 781 781 781 780 780 780 780 780 781 782 783 784 785 786 787 788 789 789 790 790 791 791 791 792 792 792 793 793 794 794 794 795 796 796 797 797 797 797 798 799 799 800 800 801 802 804 807 809 810 812 812 813 814 815
804 805 804 809 812 809 809 805 796 786 779 775 775 778 779 782 784 787 790 790 789 788 787 784 784 794 790 783 785 776 774 777 776 778 778 780 780 780 781 781 781 781 781 780 780 780 779 779 779 779 779 779 780 781 782 783 784 785 786 787 787 788 789 789 790 790 790 791 791 791 792 792 793 793 794 794 795 795 795 796 796 797 797 798 798 798 799 801 802 804 807 809 810 811 812 813 814
803 804 806 810 813 814 810 801 789 780 776 774 775 777 778 781 782 784 788 789 787 788 786 782 785 791 789 787 785 776 775 776 776 778 778 780 779 780 780 780 781 780 780 780 780 779 778 778 777 778 778 778 779 779 780 781 782 783 784 785 786 786 787 787 788 789 789 789 789 790 790 791 791 792 793 793 793 794 794 794 795 795 796 797 797 797 797 799 801 802 804 806 808 809 810 811 812
806 803 806 814 816 815 808 798 789 781 776 774 774 774 777 780 783 785 786 787 785 786 785 784 788 788 787 788 783 776 775 776 777 777 778 779 780 780 780 780 780 779 779 779 779 778 777 777 776 777 776 777 777 778 779 779 780 781 782 783 784 784 785 786 786 787 787 787 788 788 789 789 790 790 791 792 792 792 793 793 793 794 795 796 796 796 797 798 799 800 802 804 806 806 808 809 809
811 805 806 818 816 809 801 797 792 785 780 778 778 776 778 781 785 787 786 787 785 786 785 784 787 786 790 789 781 776 776 777 777 777 778 779 779 779 779 779 778 778 778 778 778 777 777 776 776 776 775 776 776 777 777 778 779 779 781 781 782 783 783 783 784 785 785 786 786 786 787 787 788 788 789 790 790 790 791 792 792 793 794 795 796 796 796 797 798 799 800 802 804 805 806 807 807
811 806 808 815 808 802 799 796 792 789 786 780 781 780 779 782 786 786 785 787 785 787 785 781 782 783 791 788 778 775 777 777 777 777 778 778 778 778 778 778 777 777 777 776 776 775 776 775 775 775 774 775 775 776 776 776 777 777 779 779 780 780 781 782 782 783 783 784 784 785 785 785 786 787 788 788 789 789 789 790 790 791 792 794 794 795 795 795 796 797 799 800 802 804 805 805 805
806 803 808 813 805 801 799 797 792 792 789 778 780 781 780 784 783 783 784 788 785 783 782 777 778 784 788 785 779 776 777 776 776 777 776 777 777 777 777 776 776 775 775 775 774 774 774 774 774 774 773 773 774 774 774 774 775 776 776 777 778 778 779 780 780 781 781 782 782 783 783 784 784 785 785 786 787 787 788 788 789 790 791 792 793 793 793 794 795 796 797 798 800 802 804 804 804
803 800 805 811 809 804 798 795 790 792 788 779 781 780 782 783 779 781 781 785 783 775 777 774 775 784 785 783 781 776 775 775 774 775 775 775 775 775 775 774 774 773 773 773 772 773 772 773 772 773 773 772 772 772 773 773 773 774 774 775 776 777 778 778 779 780 780 781 781 781 782 782 782 782 783 784 784 785 786 786 787 787 788 790 791 791 792 792 793 794 795 797 798 799 801 802 802
799 801 807 813 812 807 797 789 786 790 786 779 780 777 783 782 776 781 776 778 781 773 775 775 773 778 779 778 777 772 772 773 773 774 773 774 773 773 772 771 772 771 771 771 771 771 771 771 771 772 772 772 772 772 772 772 772 772 773 774 774 775 776 777 777 778 778 779 779 780 780 780 780 780 781 781 782 783 783 784 784 785 786 788 789 790 790 791 792 792 793 795 796 798 799 800 801
798 804 813 815 810 806 795 786 784 787 782 776 777 776 784 784 776 776 772 773 779 776 774 773 769 769 771 771 769 769 771 771 772 773 772 773 773 772 771 770 770 769 769 769 769 769 769 770 770 770 770 771 771 770 771 770 771 771 771 772 772 773 773 775 775 776 776 777 778 778 778 778 778 778 778 778 779 780 781 782 782 783 784 785 787 788 788 789 789 790 791 793 794 797 798 799 800
800 807 815 813 806 798 786 779 779 781 780 778 777 778 783 785 780 775 774 776 775 775 773 770 767 765 764 763 764 767 769 770 770 771 771 771 771 771 770 769 768 768 767 767 767 767 768 768 768 769 769 769 769 769 769 769 770 769 770 770 770 771 771 773 773 774 774 775 776 776 776 776 776 776 776 776 776 777 778 779 780 781 782 783 784 785 786 787 787 788 790 791 793 795 796 797 798
801 805 811 807 796 787 776 773 775 778 781 780 778 779 782 784 781 777 779 780 776 777 775 770 769 764 761 761 764 767 767 768 769 769 770 769 769 769 768 767 766 766 766 766 765 765 765 766 766 767 767 768 768 768 768 768 768 768 769 769 769 769 770 771 771 772 773 774 774 774 775 775 775 775 775 775 775 775 776 777 778 779 780 781 782 783 784 785 786 788 789 790 792 793 794 795 796
797 801 807 798 787 781 773 772 774 777 779 780 780 780 782 782 779 778 780 780 777 778 775 771 770 765 762 762 764 765 766 766 767 767 768 767 767 766 765 764 764 764 764 764 764 764 763 764 764 765 765 766 766 766 767 767 767 767 767 767 768 768 769 769 770 771 771 772 772 772 773 773 774 774 774 774 773 774 774 775 776 777 778 779 780 781 783 784 786 787 789 790 790 791 792 793 794
794 796 800 790 782 781 774 771 773 775 778 781 781 782 783 779 776 777 779 780 778 774 770 767 767 765 763 763 763 763 764 764 765 765 765 765 764 764 764 763 763 763 763 763 763 763 762 762 763 763 763 764 764 765 765 765 765 766 766 767 767 767 768 769 769 770 770 770 770 771 771 772 772 772 772 772 772 773 773 774 775 776 776 777 778 780 782 783 784 786 788 789 789 790 791 792 792
792 790 788 783 781 782 775 771 772 774 778 781 782 783 782 777 776 777 777 780 776 769 765 763 763 763 763 762 762 762 762 762 763 763 763 762 762 762 762 762 762 762 762 762 762 762 762 762 762 762 762 762 763 763 763 764 764 765 765 766 766 767 767 768 768 769 769 769 769 769 770 770 771 770 770 770 771 771 772 772 773 774 774 775 777 778 780 781 782 783 785 786 787 788 789 790 791
792 788 782 780 779 779 775 773 774 775 779 781 781 780 777 778 779 775 774 773 768 763 762 761 760 760 760 760 760 761 761 761 761 761 760 760 760 760 761 762 762 762 761 761 760 761 761 761 761 761 762 762 762 762 763 763 763 764 764 765 765 766 767 767 768 768 769 768 767 768 768 769 769 769 769 768 769 769 770 770 771 771 772 773 774 776 778 779 780 781 782 783 785 787 788 789 790
789 788 781 779 777 776 774 772 773 774 777 778 778 777 778 781 779 772 769 766 762 759 758 758 758 757 757 758 759 760 759 759 759 758 757 757 758 758 759 760 761 761 761 761 760 760 760 760 761 761 761 761 761 762 762 762 763 763 763 764 764 765 766 766 767 767 768 768 767 766 767 768 768 768 768 768 768 768 768 769 769 769 770 771 772 773 775 776 778 779 780 781 782 784 786 788 789
784 783 779 777 776 775 772 771 772 773 775 775 776 778 778 777 775 769 763 761 758 755 754 755 755 755 755 757 758 758 758 758 756 755 755 756 756 757 758 759 760 761 760 760 760 760 760 759 760 760 761 761 761 761 761 762 762 762 762 763 763 764 764 765 765 766 766 767 766 765 766 767 767 768 768 767 767 767 767 768 769 769 769 769 770 771 772 774 776 777 778 779 781 782 784 786 787
780 778 777 777 776 774 772 771 771 773 772 773 776 778 774 771 772 767 757 755 754 751 752 753 753 754 755 755 756 756 756 755 754 753 754 756 757 758 759 759 760 760 760 760 760 760 759 759 759 759 760 760 761 761 761 761 762 762 762 762 763 764 764 764 764 764 765 766 766 764 764 765 766 767 767 767 767 767 767 768 768 769 769 769 770 770 771 772 774 776 778 778 779 780 781 783 784
777 776 776 776 775 772 772 772 771 771 770 769 773 773 769 765 770 766 753 749 749 749 752 751 752 754 753 754 753 753 753 752 752 753 755 756 757 759 759 760 761 760 761 760 760 760 760 759 759 759 759 760 760 760 760 760 761 761 762 762 763 763 763 764 763 763 764 764 765 764 763 764 765 765 766 766 767 767 767 768 769 769 770 770 770 771 771 773 774 775 777 778 779 779 779 781 783
777 777 778 777 775 773 772 772 771 770 769 766 766 767 765 763 767 762 750 746 747 750 752 751 752 752 751 752 751 751 750 749 751 753 755 757 758 760 761 761 761 761 761 761 761 760 760 760 759 759 759 759 760 760 760 760 760 761 761 761 762 762 763 763 762 762 763 764 764 765 763 763 764 764 764 765 766 766 766 767 768 769 770 770 771 771 772 773 772 772 774 777 778 778 778 780 781
778 778 783 782 776 774 771 768 767 767 766 761 763 772 770 764 761 753 746 744 745 749 750 750 750 750 750 750 749 748 747 747 750 753 755 757 759 760 761 762 762 762 762 762 761 761 760 760 759 759 759 759 759 759 760 760 760 760 761 761 761 762 762 763 763 762 763 764 764 765 764 763 763 763 764 764 765 765 765 766 767 768 769 770 771 772 772 772 771 771 773 775 775 776 776 777 778
782 782 785 786 782 775 765 762 761 761 761 757 766 781 773 757 749 743 740 741 744 747 748 748 748 747 747 747 746 745 745 747 749 753 755 758 760 760 761 762 762 762 762 762 761 760 760 759 759 759 758 759 759 759 760 760 760 761 761 761 761 762 762 763 763 762 763 764 764 765 765 764 763 763 763 764 764 765 765 765 766 766 767 768 770 771 771 771 771 770 770 771 771 772 772 773 774
787 786 785 787 789 777 760 757 756 757 759 755 766 783 772 753 744 739 735 736 742 746 746 746 746 746 745 745 745 744 744 746 749 753 756 758 760 760 761 761 761 762 761 761 761 761 760 759 759 759 759 759 759 759 760 760 761 761 761 761 761 761 762 762 762 762 763 763 764 764 765 764 763 763 764 763 763 764 765 764 765 765 766 767 768 769 769 769 769 768 767 767 768 769 769 770 771
788 792 790 785 785 775 759 752 750 754 759 756 766 779 770 754 744 737 734 735 741 746 745 744 744 744 744 744 743 743 744 746 749 753 756 758 759 760 761 761 761 761 761 761 761 761 760 760 760 759 759 759 759 759 759 760 760 760 761 761 761 761 761 761 761 762 762 763 763 763 764 764 763 763 764 763 763 763 764 764 764 765 766 766 767 768 768 768 768 766 765 764 765 766 766 767 769
788 790 790 783 779 775 762 751 746 750 758 760 764 770 763 751 742 736 735 736 739 744 743 742 742 741 741 742 741 742 745 747 750 754 756 758 759 760 760 760 761 761 761 762 761 761 761 760 760 760 759 759 759 759 759 759 759 760 760 760 760 760 760 761 760 761 761 762 762 762 762 763 763 763 763 763 763 763 763 763 763 764 764 765 765 766 767 767 767 767 766 765 764 764 765 766 768
790 785 784 780 774 774 767 757 749 748 757 763 762 764 760 749 742 737 736 737 739 742 741 740 739 738 738 740 740 741 744 747 750 753 756 758 759 759 760 760 761 761 762 762 762 762 761 761 760 760 760 759 759 759 759 759 759 759 760 760 760 759 759 760 760 761 761 761 761 761 761 761 762 762 762 762 762 763 762 762 762 762 763 763 764 764 765 766 766 766 766 766 765 765 765 766 766
788 783 780 776 770 769 768 760 752 750 756 761 762 763 759 750 744 740 736 736 738 739 739 738 737 736 737 737 738 740 742 746 749 752 755 757 758 759 760 760 761 761 762 762 762 762 761 761 761 760 760 760 760 759 759 759 759 759 759 760 760 759 759 759 759 760 761 761 761 761 761 761 761 761 761 760 761 762 762 761 761 761 761 762 762 762 763 764 764 765 765 764 763 763 763 762 762
779 775 772 771 768 764 760 753 749 751 757 760 760 760 755 750 745 740 735 734 735 735 735 735 734 734 735 735 735 738 741 746 749 751 754 757 758 759 759 760 761 761 762 762 762 762 762 761 761 761 761 760 760 760 759 759 759 759 759 759 759 759 758 758 759 760 760 761 761 761 761 761 760 760 760 760 760 760 761 761 761 760 760 760 760 761 761 762 763 763 764 764 763 762 761 760 760
775 774 771 769 768 764 755 751 746 748 757 757 753 754 751 748 743 738 734 733 733 733 732 731 731 732 732 732 733 736 741 746 749 751 754 756 757 758 759 760 761 761 762 762 762 762 762 762 762 761 761 761 761 760 760 760 759 759 759 759 759 758 758 758 758 759 760 760 761 761 760 760 760 759 760 759 760 760 760 760 760 759 758 758 758 759 759 760 761 761 762 764 764 763 763 762 761
776 775 774 771 770 764 755 752 749 748 756 756 749 750 749 745 741 736 732 732 731 729 729 728 728 730 730 729 732 736 741 746 748 751 754 755 757 758 759 760 761 762 762 763 762 763 763 763 763 762 762 762 762 761 761 760 760 760 760 759 759 759 758 758 759 759 760 760 761 761 760 760 759 759 759 759 759 759 759 759 759 759 757 757 757 757 758 758 759 759 760 762 763 763 764 765 765
774 772 774 775 770 764 758 753 749 749 757 757 751 751 747 741 738 734 730 728 726 723 723 724 725 727 728 727 731 735 741 745 747 749 752 754 757 758 759 760 761 762 763 764 764 764 764 764 764 763 763 763 762 762 762 761 760 760 760 760 760 760 759 759 759 759 760 760 760 760 760 759 759 759 759 759 758 758 758 758 758 758 757 756 756 756 757 757 758 758 759 759 760 761 762 765 767
774 771 773 774 767 766 767 758 749 748 753 754 751 751 747 742 737 731 726 722 720 719 718 719 722 724 725 725 729 734 739 742 744 747 751 753 756 758 759 761 762 763 764 764 765 765 765 765 764 764 764 763 763 763 762 762 761 761 761 760 760 760 760 760 759 760 760 760 759 759 759 759 758 758 758 758 758 758 757 757 756 756 756 756 755 755 755 756 757 758 758 758 759 760 761 763 766
774 769 769 769 765 765 765 759 751 748 748 750 754 757 749 741 738 729 720 718 718 717 717 718 720 720 721 723 727 732 736 740 742 746 749 752 755 757 759 761 762 763 764 765 765 766 766 765 765 764 764 764 764 763 763 762 761 761 761 761 761 761 761 760 760 760 760 759 759 759 758 758 758 758 758 757 757 757 756 756 755 755 755 755 755 754 754 754 755 757 758 758 758 759 761 762 764
775 767 764 764 763 762 760 758 757 759 758 750 753 764 749 729 728 725 716 715 717 716 716 718 720 719 721 725 728 732 735 739 742 746 749 753 755 757 760 761 763 764 765 766 766 766 766 766 765 765 765 764 764 763 763 763 762 762 762 761 761 761 761 761 760 760 760 759 759 758 758 757 757 757 756 756 756 756 756 755 755 755 754 755 755 754 753 753 754 756 757 758 757 758 759 761 762
776 765 759 760 759 759 760 760 763 768 765 750 749 762 753 731 727 723 716 715 716 715 715 716 719 720 721 724 728 732 735 739 743 747 750 753 755 758 760 762 763 765 766 767 767 767 767 767 766 765 765 765 764 764 764 763 763 763 763 762 762 762 761 761 761 761 760 759 759 758 757 757 756 756 756 756 755 755 755 755 754 754 754 754 754 754 753 753 754 755 756 755 755 756 757 759 759
773 761 758 759 757 759 760 762 767 766 761 754 749 756 758 746 735 725 718 717 717 715 715 715 717 718 720 723 726 730 734 739 744 748 751 754 756 758 760 762 764 766 767 767 768 768 768 768 767 766 766 766 765 765 764 764 763 763 763 763 762 762 762 762 761 760 759 759 758 757 757 756 756 756 756 755 755 755 755 755 755 755 755 755 754 754 753 754 754 754 753 753 753 755 756 757 758
766 759 760 761 761 762 761 765 768 765 765 764 754 753 760 750 732 723 718 719 719 715 714 715 715 715 717 721 724 728 733 738 743 749 752 755 757 759 761 763 766 767 768 768 768 769 769 768 768 767 767 767 766 766 765 764 764 764 764 763 763 762 762 761 761 760 759 758 758 757 757 756 756 756 756 756 756 756 756 756 756 756 756 755 755 754 754 754 755 754 753 753 754 755 756 757 757
760 759 761 763 765 766 768 770 770 772 771 764 752 752 759 745 724 720 720 719 718 713 711 712 711 711 714 718 722 728 734 740 745 750 753 756 757 759 761 764 766 767 768 769 769 769 768 768 768 767 767 767 767 766 765 765 764 764 764 763 763 763 762 761 761 760 759 759 758 758 757 757 757 756 756 756 756 756 756 756 756 756 756 756 755 755 755 755 755 755 755 755 755 755 756 756 757
759 761 764 767 768 768 772 771 772 780 770 754 748 746 753 746 721 712 713 709 707 706 707 708 707 708 711 715 722 729 735 741 746 750 752 755 757 759 762 764 766 767 768 768 768 768 768 768 768 768 768 768 768 767 766 765 764 764 764 764 763 763 762 762 761 760 760 760 759 759 758 758 757 757 757 757 757 757 757 756 756 756 756 756 755 755 756 756 756 756 756 755 755 756 756 756 756
760 764 768 774 773 772 778 775 777 783 763 742 740 737 746 744 718 702 700 696 697 700 702 704 705 707 709 715 723 730 735 740 745 749 751 755 758 761 763 765 767 768 768 768 769 769 769 770 770 770 770 769 768 768 767 766 765 765 765 764 764 764 763 762 762 761 761 760 760 760 760 759 759 759 758 758 758 758 758 757 757 757 756 756 756 755 755 755 756 756 756 755 755 756 756 756 756
762 766 772 782 781 778 782 778 775 772 753 736 732 731 737 729 708 700 697 694 695 695 695 699 701 703 711 721 727 731 736 740 745 750 753 758 761 763 765 766 768 769 769 770 770 771 771 771 771 771 771 771 770 769 768 767 767 766 766 765 765 765 764 764 763 763 763 762 762 761 760 760 760 759 759 759 759 759 758 758 758 757 757 757 756 755 755 755 755 756 756 756 755 755 756 756 756
765 767 772 781 783 782 779 770 765 758 743 731 724 727 731 717 702 698 694 693 693 691 693 695 698 706 717 726 730 734 739 743 748 752 756 761 763 764 766 767 769 770 771 772 772 772 772 772 772 773 773 773 771 770 769 769 768 768 767 766 766 766 765 765 764 764 764 764 763 763 762 761 761 760 760 760 760 759 759 759 758 758 758 757 757 756 755 755 755 755 756 756 755 755 755 755 755
764 760 765 770 769 771 768 760 757 748 735 729 725 726 724 712 699 688 684 688 690 691 693 696 704 714 721 727 732 738 743 747 751 754 759 763 764 766 768 769 771 772 773 774 774 774 773 773 774 774 774 774 773 772 771 770 769 769 768 767 767 767 766 766 766 765 765 765 764 764 763 762 762 761 761 761 760 760 759 759 758 758 757 758 757 757 756 755 754 754 755 756 755 755 755 755 755
762 758 764 764 757 760 762 755 748 742 740 735 729 724 712 700 692 681 681 688 688 691 694 698 710 719 723 731 737 742 746 749 753 757 761 764 766 768 769 771 772 773 774 775 774 774 774 775 775 775 776 775 774 773 772 771 771 770 769 768 768 768 767 767 766 766 766 766 765 764 764 763 762 762 761 761 761 760 760 759 759 758 757 757 757 757 756 755 754 754 755 755 755 754 754 754 754
761 764 762 754 750 756 762 756 744 745 748 733 721 722 713 703 697 685 685 691 690 694 696 699 711 720 726 734 739 744 748 751 755 759 763 766 768 770 771 772 774 774 775 775 775 775 775 775 776 776 777 776 775 774 773 773 772 771 770 769 769 768 768 767 767 767 767 767 766 765 765 764 763 762 762 761 761 761 760 760 759 758 757 757 757 757 757 756 755 755 755 754 754 754 754 754 754
753 763 753 747 751 752 755 757 750 749 747 725 713 717 713 711 707 691 688 694 694 696 698 703 714 723 729 735 740 745 750 754 758 761 765 768 769 771 772 774 776 776 777 776 776 776 776 776 777 777 777 777 776 776 775 774 773 772 771 771 770 769 769 768 767 767 767 767 766 766 765 764 763 763 762 761 761 761 761 760 759 758 757 757 756 756 756 756 756 756 755 755 754 754 753 753 753
741 748 744 746 754 752 750 754 752 748 744 726 713 711 706 704 702 695 693 695 697 698 701 709 720 726 731 737 743 747 751 756 760 763 767 769 771 773 774 776 777 777 777 777 777 777 777 778 778 778 778 778 778 777 777 776 774 773 773 772 771 771 770 770 768 768 767 767 766 766 765 765 764 763 762 762 761 761 761 760 759 759 757 756 756 756 756 756 755 755 755 755 754 753 753 753 753
742 746 746 746 748 745 742 741 739 739 738 729 719 714 705 692 688 693 693 690 694 700 707 717 725 729 734 739 744 749 753 758 762 765 768 770 772 774 775 776 777 778 778 778 778 778 778 779 779 779 779 779 779 778 778 777 775 775 774 773 773 772 771 771 770 769 768 767 767 766 766 765 765 764 763 762 762 761 761 760 759 759 758 757 756 755 756 756 756 755 754 754 754 753 753 752 753
749 752 752 749 745 740 738 734 728 729 731 728 722 718 705 686 679 684 686 685 692 701 712 723 729 735 740 742 747 752 756 760 763 766 769 771 773 774 775 776 777 778 779 779 779 779 779 779 779 780 780 780 780 779 778 777 776 775 775 774 774 773 773 772 771 770 769 768 767 767 766 766 765 765 763 763 762 762 761 760 759 759 758 757 756 755 755 755 755 755 754 754 753 753 753 752 752
738 744 743 742 739 737 739 735 724 722 724 720 719 718 705 686 679 682 685 689 696 705 716 727 733 740 746 748 752 755 758 762 764 767 769 771 773 774 775 776 777 778 779 779 779 779 779 780 780 781 781 781 780 779 778 777 776 776 775 775 775 774 774 773 772 771 770 769 768 767 767 767 766 765 764 763 763 762 761 760 759 759 758 757 756 755 755 755 755 755 754 754 753 753 753 753 752